Chicago Midway, IL

7:50 AM CST on December 13, 2017 (GMT -0600)
Chicago-Midway

Weather History for KMDW - April, 2013

Change the Weather History Date:

Thursday, April 18, 2013

  Actual Average Record
Temperature  
Mean Temperature 52 °F 52 °F  
Max Temperature 63 °F 60 °F 89 °F (2002)
Min Temperature 40 °F 43 °F 25 °F (1983)
Degree Days  
Heating Degree Days 13 14  
Month to date heating degree days 343 308  
Since 1 July heating degree days 5458 5631  
Cooling Degree Days 0 0  
Month to date cooling degree days 0 0  
Year to date cooling degree days 0 1  
Growing Degree Days 4 (Base 50)    
Moisture  
Dew Point 52 °F    
Average Humidity 92    
Maximum Humidity 100    
Minimum Humidity 71    
Precipitation  
Precipitation 1.67 in 0.13 in 3.83 in (1975)
Month to date precipitation 5.84 2.15  
Year to date precipitation 11.35 8.87  
Sea Level Pressure  
Sea Level Pressure 29.60 in    
Wind  
Wind Speed 14 mph (SSW)    
Max Wind Speed 30 mph    
Max Gust Speed 46 mph    
Visibility 5 miles    
Events Rain , Thunderstorm    
T = Trace of Precipitation, MM = Missing Value Source: NWS Daily Summary

Daily Weather History Graph

Daily Weather History Graph

Search for Another Location

Airport or City:

Trip Planner

Search our weather history database for the weather conditions in past years. The results will help you decide how hot, cold, wet, or windy it might be!

Date:

Astronomy

Apr. 18, 2013 Rise Set
Actual Time 6:05 AM CDT 7:35 PM CDT
Civil Twilight 5:36 AM CDT 8:04 PM CDT
Nautical Twilight 5:01 AM CDT 8:39 PM CDT
Astronomical Twilight 4:24 AM CDT 9:17 PM CDT
Moon 12:16 PM CDT (4/18) 1:51 AM CDT (4/18)
Length of Visible Light 14h 28m
Length of Day
13h 29m
First Quarter, 52% of the Moon is Illuminated
Apr 18
First Quarter
Apr 25
Full
May 2
Last Quarter
May 9
New
May 17
First Quarter

Hourly Weather History & Observations

Time (CDT) Temp. Windchill Dew Point Humidity Pressure Visibility Wind Dir Wind Speed Gust Speed Precip Events Conditions
12:08 AM 51.8 °F - 48.2 °F 88% 29.80 in 0.8 mi East 9.2 mph - 0.10 in Rain , Thunderstorm Heavy Thunderstorms and Rain
12:20 AM 51.8 °F - 48.2 °F 88% 29.79 in 1.2 mi East 5.8 mph - 0.20 in Rain , Thunderstorm Thunderstorms and Rain
12:41 AM 51.8 °F - 51.8 °F 100% 29.81 in 0.8 mi Calm Calm - 0.44 in Rain , Thunderstorm Thunderstorms and Rain
12:51 AM 51.1 °F - 48.9 °F 92% 29.81 in 0.8 mi Variable 4.6 mph - 0.58 in Rain , Thunderstorm Heavy Thunderstorms and Rain
1:07 AM 51.8 °F - 48.2 °F 88% 29.78 in 1.0 mi Variable 3.5 mph - 0.12 in Rain , Thunderstorm Heavy Thunderstorms and Rain
1:13 AM 51.8 °F - 50.0 °F 94% 29.78 in 2.0 mi NE 3.5 mph - 0.14 in Rain , Thunderstorm Thunderstorms and Rain
1:19 AM 51.8 °F - 50.0 °F 94% 29.78 in 5.0 mi Calm Calm - 0.15 in Rain Light Rain
1:38 AM 51.8 °F - 48.2 °F 88% 29.77 in 2.0 mi NE 6.9 mph - 0.21 in Rain Rain
1:51 AM 51.1 °F - 48.9 °F 92% 29.75 in 2.0 mi NE 5.8 mph - 0.25 in Rain Rain
2:02 AM 51.8 °F - 50.0 °F 94% 29.73 in 1.2 mi North 6.9 mph - N/A Rain Rain
2:09 AM 51.8 °F - 50.0 °F 94% 29.74 in 1.5 mi North 3.5 mph - N/A Rain , Thunderstorm Thunderstorms and Rain
2:51 AM 52.0 °F - 51.1 °F 97% 29.69 in 1.5 mi East 6.9 mph - N/A Rain , Thunderstorm Thunderstorms and Rain
3:15 AM 53.6 °F - 51.8 °F 94% 29.66 in 2.0 mi East 9.2 mph - 0.08 in Rain Light Rain
3:44 AM 53.6 °F - 51.8 °F 94% 29.62 in 3.0 mi ESE 18.4 mph - 0.13 in Rain Light Rain
3:51 AM 54.0 °F - 53.1 °F 97% 29.63 in 3.0 mi ESE 10.4 mph 20.7 mph 0.13 in Rain Light Rain
4:15 AM 53.6 °F - 53.6 °F 100% 29.62 in 5.0 mi East 4.6 mph - 0.01 in Rain Light Rain
4:39 AM 53.6 °F - 53.6 °F 100% 29.65 in 1.0 mi Calm Calm - 0.17 in Rain , Thunderstorm Heavy Thunderstorms and Rain
4:51 AM 55.0 °F - 55.0 °F 100% 29.65 in 3.0 mi ESE 3.5 mph - 0.31 in Rain , Thunderstorm Thunderstorms and Rain
5:04 AM 55.4 °F - 55.4 °F 100% 29.64 in 5.0 mi NE 3.5 mph - 0.03 in Rain Light Rain
5:39 AM 55.4 °F - 55.4 °F 100% 29.63 in 2.0 mi NNW 6.9 mph - 0.07 in Rain Light Rain
5:51 AM 55.0 °F - 55.0 °F 100% 29.62 in 1.2 mi NNW 5.8 mph - 0.10 in Rain Rain
6:01 AM 53.6 °F - 53.6 °F 100% 29.61 in 0.8 mi NNW 4.6 mph - 0.05 in Rain Rain
6:22 AM 53.6 °F - 53.6 °F 100% 29.60 in 1.2 mi NNE 4.6 mph - 0.05 in Rain Light Rain
6:37 AM 51.8 °F - 51.8 °F 100% 29.61 in 2.5 mi NNW 11.5 mph - 0.06 in Rain Light Rain
6:48 AM 51.8 °F - 50.0 °F 94% 29.59 in 3.0 mi North 9.2 mph - 0.06 in Rain Light Rain
6:51 AM 51.1 °F - 50.0 °F 96% 29.60 in 3.0 mi North 10.4 mph - 0.06 in Rain Light Rain
7:25 AM 51.8 °F - 51.8 °F 100% 29.53 in 1.5 mi ENE 11.5 mph - 0.00 in Rain Light Rain
7:32 AM 51.8 °F - 51.8 °F 100% 29.53 in 0.8 mi East 9.2 mph - 0.01 in Rain , Thunderstorm Light Thunderstorms and Rain
7:39 AM 51.8 °F - 50.0 °F 94% 29.59 in 2.5 mi NW 20.7 mph 46.0 mph 0.02 in Rain , Thunderstorm Light Thunderstorms and Rain
7:51 AM 51.1 °F - 51.1 °F 100% 29.57 in 3.0 mi ENE 3.5 mph - 0.13 in Rain , Thunderstorm Light Thunderstorms and Rain
8:08 AM 53.6 °F - 53.6 °F 100% 29.54 in 4.0 mi ENE 5.8 mph - 0.05 in Rain Light Rain
8:51 AM 54.0 °F - 54.0 °F 100% 29.54 in 9.0 mi Calm Calm - 0.10 in Rain Light Rain
9:14 AM 55.4 °F - 55.4 °F 100% 29.57 in 3.0 mi Calm Calm - 0.06 in Rain Light Rain
9:51 AM 54.0 °F - 54.0 °F 100% 29.57 in 4.0 mi SW 4.6 mph - 0.11 in Rain Light Rain
10:51 AM 57.2 °F - 57.2 °F 100% 29.55 in 5.0 mi South 12.7 mph 18.4 mph N/A Rain Light Rain
11:22 AM 59.0 °F - 57.2 °F 94% 29.58 in 10.0 mi WSW 11.5 mph 20.7 mph 0.03 in Rain Light Rain
11:44 AM 59.0 °F - 57.2 °F 94% 29.60 in 10.0 mi SW 13.8 mph - 0.03 in   Overcast
11:51 AM 60.1 °F - 57.9 °F 93% 29.60 in 10.0 mi SW 12.7 mph - 0.03 in   Overcast
12:17 PM 60.8 °F - 57.2 °F 88% 29.61 in 10.0 mi SW 16.1 mph 20.7 mph N/A   Overcast
12:51 PM 60.1 °F - 57.0 °F 90% 29.58 in 10.0 mi SSW 10.4 mph 20.7 mph 0.00 in   Overcast
1:22 PM 60.8 °F - 57.2 °F 88% 29.60 in 9.0 mi SSW 16.1 mph 23.0 mph 0.00 in Rain Light Rain
1:51 PM 60.1 °F - 57.9 °F 93% 29.59 in 5.0 mi SSW 15.0 mph 25.3 mph 0.05 in Rain Light Rain
2:51 PM 60.1 °F - 57.9 °F 93% 29.56 in 9.0 mi South 13.8 mph 20.7 mph 0.05 in Rain Light Rain
3:51 PM 61.0 °F - 57.9 °F 90% 29.45 in 10.0 mi SSE 19.6 mph 34.5 mph 0.01 in   Overcast
4:15 PM 60.8 °F - 57.2 °F 88% 29.53 in 10.0 mi SW 11.5 mph - N/A   Overcast
4:51 PM 62.1 °F - 57.0 °F 84% 29.48 in 10.0 mi SSE 13.8 mph 23.0 mph N/A   Overcast
5:51 PM 62.1 °F - 57.0 °F 84% 29.49 in 10.0 mi SSW 15.0 mph 23.0 mph N/A   Overcast
6:03 PM 62.6 °F - 57.2 °F 82% 29.47 in 10.0 mi South 13.8 mph 21.9 mph N/A   Overcast
6:46 PM 62.6 °F - 57.2 °F 82% 29.46 in 10.0 mi SSW 16.1 mph 24.2 mph 0.00 in Rain Light Rain
6:51 PM 63.0 °F - 57.0 °F 81% 29.44 in 3.0 mi South 15.0 mph 24.2 mph 0.00 in Rain Light Rain
7:08 PM 62.6 °F - 57.2 °F 82% 29.46 in 10.0 mi South 16.1 mph 23.0 mph 0.01 in   Overcast
7:35 PM 62.6 °F - 57.2 °F 82% 29.47 in 2.0 mi WSW 28.8 mph 41.4 mph 0.03 in Rain Light Rain
7:49 PM 57.2 °F - 53.6 °F 88% 29.47 in 2.0 mi WSW 21.9 mph 27.6 mph 0.04 in Rain Light Rain
7:51 PM 55.9 °F - 53.1 °F 90% 29.47 in 5.0 mi WSW 23.0 mph 29.9 mph 0.04 in Rain Light Rain
8:16 PM 53.6 °F - 51.8 °F 94% 29.52 in 2.5 mi WSW 24.2 mph 31.1 mph 0.01 in Rain Light Rain
8:39 PM 51.8 °F - 48.2 °F 88% 29.54 in 5.0 mi SW 24.2 mph 31.1 mph 0.01 in Rain Light Rain
8:51 PM 50.0 °F - 46.9 °F 89% 29.53 in 5.0 mi WSW 24.2 mph 40.3 mph 0.02 in Rain Light Rain
9:14 PM 48.2 °F - 44.6 °F 87% 29.54 in 9.0 mi WSW 25.3 mph 33.4 mph 0.00 in Rain Light Rain
9:51 PM 46.9 °F - 42.1 °F 83% 29.55 in 9.0 mi WSW 18.4 mph 31.1 mph 0.00 in   Overcast
10:16 PM 44.6 °F 35.9 °F 39.2 °F 81% 29.54 in 10.0 mi WSW 23.0 mph 32.2 mph N/A   Overcast
10:51 PM 45.0 °F 36.6 °F 37.0 °F 74% 29.55 in 10.0 mi WSW 21.9 mph 31.1 mph N/A   Overcast
11:51 PM 43.0 °F 33.3 °F 34.0 °F 71% 29.52 in 10.0 mi West 25.3 mph 29.9 mph N/A   Overcast